When you browse on this site, cookies collect data to enhance your experience and personalize the content and advertising you see.
Visit our Privacy Policy to learn more. By continuing to use the site, you agree to this use of cookies and data.
  • In Sweden
  • List of Countries
  • For 7 days
  • Water Temperature
  • Weather Map
  • Weather Widgets
  • user-avatar
    Login

    Hourly Weather Slubice

    Today, 22 October, Tuesday

    Time Temperature Precipitation Wind Pressure Humidity
    00:00 +16°C° 0 mm 2 mps 759 mmHg 79%
    01:00 +15°C° 0 mm 2 mps 760 mmHg 78%
    02:00 +15°C° 0 mm 2 mps 760 mmHg 80%
    03:00 +15°C° 0 mm 1 mps 760 mmHg 83%
    04:00 +14°C° 0 mm 1 mps 760 mmHg 85%
    05:00 +14°C° 0 mm 1 mps 760 mmHg 86%
    06:00 +14°C° 0 mm 1 mps 760 mmHg 87%
    07:00 +14°C° 0 mm 1 mps 760 mmHg 86%
    08:00 +16°C° 0 mm 1 mps 760 mmHg 80%
    09:00 +18°C° 0 mm 1 mps 760 mmHg 74%
    10:00 +19°C° 0 mm 1 mps 760 mmHg 69%
    11:00 +20°C° 0 mm 1 mps 760 mmHg 65%
    12:00 +21°C° 0 mm 1 mps 760 mmHg 62%
    13:00 +22°C° 0 mm 1 mps 761 mmHg 58%
    14:00 +22°C° 0 mm 1 mps 760 mmHg 61%
    15:00 +21°C° 0 mm 1 mps 760 mmHg 64%
    16:00 +20°C° 0 mm 1 mps 760 mmHg 67%
    17:00 +19°C° 0 mm 1 mps 760 mmHg 70%
    18:00 +18°C° 0 mm 1 mps 760 mmHg 73%
    19:00 +16°C° 0 mm 1 mps 760 mmHg 75%
    20:00 +16°C° 0 mm 1 mps 760 mmHg 76%
    21:00 +16°C° 0 mm 1 mps 760 mmHg 77%
    22:00 +16°C° 0 mm 1 mps 760 mmHg 78%
    23:00 +15°C° 0 mm 1 mps 760 mmHg 81%

    Tomorrow, 23 October, Wednesday

    Time Temperature Precipitation Wind Pressure Humidity
    00:00 +15°C° 0 mm 1 mps 760 mmHg 83%
    01:00 +14°C° 0 mm 1 mps 760 mmHg 86%
    02:00 +14°C° 0 mm 1 mps 760 mmHg 88%
    03:00 +13°C° 0 mm 1 mps 761 mmHg 90%
    04:00 +13°C° 0 mm 1 mps 761 mmHg 91%
    05:00 +13°C° 0 mm 1 mps 760 mmHg 92%
    06:00 +13°C° 0 mm 1 mps 760 mmHg 92%
    07:00 +13°C° 0 mm 1 mps 760 mmHg 92%
    08:00 +14°C° 0 mm 1 mps 760 mmHg 85%
    09:00 +16°C° 0 mm 1 mps 760 mmHg 78%
    10:00 +18°C° 0 mm 1 mps 760 mmHg 71%
    11:00 +19°C° 0 mm 1 mps 760 mmHg 67%
    12:00 +20°C° 0 mm 1 mps 760 mmHg 64%
    13:00 +21°C° 0 mm 1 mps 759 mmHg 61%
    14:00 +20°C° 0 mm 1 mps 759 mmHg 63%
    15:00 +19°C° 0 mm 1 mps 759 mmHg 66%
    16:00 +18°C° 0 mm 2 mps 758 mmHg 69%
    17:00 +17°C° 0 mm 2 mps 758 mmHg 73%
    18:00 +16°C° 0 mm 2 mps 758 mmHg 76%
    19:00 +15°C° 0 mm 2 mps 758 mmHg 80%
    20:00 +15°C° 0 mm 2 mps 758 mmHg 82%
    21:00 +13°C° 0 mm 3 mps 758 mmHg 84%
    22:00 +13°C° 0 mm 3 mps 757 mmHg 87%
    23:00 +13°C° 0 mm 3 mps 757 mmHg 88%

    Day after tomorrow, 24 October, Thursday

    Time Temperature Precipitation Wind Pressure Humidity
    00:00 +13°C° 0 mm 3 mps 757 mmHg 90%
    01:00 +13°C° 0 mm 3 mps 757 mmHg 92%
    02:00 +12°C° 0 mm 3 mps 757 mmHg 92%
    03:00 +12°C° 0 mm 3 mps 756 mmHg 93%
    04:00 +12°C° 0 mm 3 mps 756 mmHg 93%
    05:00 +12°C° 0 mm 3 mps 755 mmHg 93%
    06:00 +12°C° 0 mm 3 mps 755 mmHg 94%
    07:00 +12°C° 0 mm 4 mps 755 mmHg 94%
    08:00 +14°C° 0 mm 4 mps 755 mmHg 86%
    09:00 +15°C° 0 mm 4 mps 754 mmHg 79%
    10:00 +18°C° 0 mm 4 mps 754 mmHg 71%
    11:00 +19°C° 0 mm 4 mps 754 mmHg 67%
    12:00 +20°C° 0 mm 5 mps 754 mmHg 63%
    13:00 +21°C° 0 mm 5 mps 753 mmHg 59%
    14:00 +20°C° 0 mm 4 mps 753 mmHg 62%
    15:00 +19°C° 0 mm 4 mps 753 mmHg 65%
    16:00 +19°C° 0 mm 3 mps 752 mmHg 68%
    17:00 +18°C° 0 mm 3 mps 752 mmHg 70%
    18:00 +17°C° 0 mm 3 mps 752 mmHg 73%
    19:00 +16°C° 0 mm 3 mps 752 mmHg 76%
    20:00 +16°C° 0 mm 3 mps 752 mmHg 75%
    21:00 +14°C° 0 mm 3 mps 752 mmHg 75%
    22:00 +15°C° 0 mm 2 mps 752 mmHg 74%
    23:00 +14°C° 0 mm 3 mps 753 mmHg 71%

    25 October, Friday

    Time Temperature Precipitation Wind Pressure Humidity
    00:00 +14°C° 0 mm 3 mps 753 mmHg 68%
    01:00 +14°C° 0 mm 3 mps 753 mmHg 65%
    02:00 +14°C° 0 mm 3 mps 753 mmHg 67%
    03:00 +13°C° 0 mm 3 mps 753 mmHg 70%
    04:00 +12°C° 0 mm 3 mps 753 mmHg 72%
    05:00 +12°C° 0 mm 3 mps 754 mmHg 78%
    06:00 +12°C° 0 mm 4 mps 754 mmHg 84%
    07:00 +12°C° 0 mm 4 mps 755 mmHg 89%
    08:00 +13°C° 0 mm 4 mps 755 mmHg 86%
    09:00 +14°C° 0 mm 4 mps 756 mmHg 82%
    10:00 +16°C° 0 mm 5 mps 756 mmHg 78%
    11:00 +17°C° 0 mm 5 mps 757 mmHg 73%
    12:00 +19°C° 0 mm 5 mps 757 mmHg 67%
    13:00 +20°C° 0 mm 5 mps 758 mmHg 62%
    14:00 +19°C° 0 mm 4 mps 758 mmHg 65%
    15:00 +18°C° 0 mm 3 mps 758 mmHg 68%
    16:00 +17°C° 0 mm 2 mps 758 mmHg 71%
    17:00 +16°C° 0 mm 2 mps 758 mmHg 74%
    18:00 +15°C° 0 mm 2 mps 758 mmHg 77%
    19:00 +14°C° 0 mm 1 mps 759 mmHg 80%
    20:00 +14°C° 0 mm 1 mps 759 mmHg 82%
    21:00 +13°C° 0 mm 1 mps 759 mmHg 83%
    22:00 +12°C° 0 mm 0 mps 759 mmHg 85%
    23:00 +13°C° 0 mm 1 mps 758 mmHg 86%

    26 October, Saturday

    Time Temperature Precipitation Wind Pressure Humidity
    00:00 +12°C° 0 mm 1 mps 758 mmHg 86%
    01:00 +12°C° 0 mm 2 mps 758 mmHg 87%
    02:00 +12°C° 0 mm 2 mps 757 mmHg 88%
    03:00 +11°C° 0 mm 3 mps 757 mmHg 89%
    04:00 +11°C° 0 mm 3 mps 757 mmHg 90%
    05:00 +11°C° 0 mm 3 mps 756 mmHg 90%
    06:00 +11°C° 0 mm 4 mps 756 mmHg 89%
    07:00 +11°C° 0 mm 4 mps 755 mmHg 89%
    08:00 +13°C° 0 mm 4 mps 755 mmHg 82%
    09:00 +15°C° 0 mm 5 mps 755 mmHg 75%
    10:00 +16°C° 0 mm 5 mps 755 mmHg 67%
    11:00 +17°C° 0 mm 6 mps 754 mmHg 63%
    12:00 +19°C° 0 mm 6 mps 754 mmHg 59%
    13:00 +20°C° 0 mm 6 mps 754 mmHg 54%
    14:00 +19°C° 0 mm 5 mps 754 mmHg 58%
    15:00 +18°C° 0 mm 4 mps 753 mmHg 61%
    16:00 +17°C° 0 mm 4 mps 753 mmHg 64%
    17:00 +16°C° 0 mm 3 mps 753 mmHg 67%
    18:00 +14°C° 0 mm 3 mps 754 mmHg 70%
    19:00 +14°C° 0 mm 3 mps 754 mmHg 72%
    20:00 +14°C° 0 mm 3 mps 754 mmHg 73%
    21:00 +14°C° 0 mm 3 mps 754 mmHg 74%
    22:00 +14°C° 0 mm 3 mps 754 mmHg 75%
    23:00 +13°C° 0.2 mm 3 mps 753 mmHg 79%

    27 October, Sunday

    Time Temperature Precipitation Wind Pressure Humidity
    00:00 +13°C° 0.2 mm 3 mps 753 mmHg 82%
    01:00 +12°C° 0.2 mm 3 mps 753 mmHg 85%
    02:00 +12°C° 0.6 mm 3 mps 753 mmHg 85%
    03:00 +11°C° 0.6 mm 4 mps 753 mmHg 85%
    04:00 +11°C° 0.6 mm 4 mps 753 mmHg 85%
    05:00 +9°C° 0.7 mm 5 mps 753 mmHg 85%
    06:00 +9°C° 0.7 mm 5 mps 753 mmHg 85%
    07:00 +8°C° 0.7 mm 5 mps 753 mmHg 84%
    08:00 +8°C° 0.4 mm 6 mps 754 mmHg 80%
    09:00 +7°C° 0.4 mm 6 mps 754 mmHg 75%
    10:00 +6°C° 0.4 mm 7 mps 755 mmHg 71%
    11:00 +8°C° 0 mm 7 mps 755 mmHg 67%
    12:00 +9°C° 0 mm 8 mps 755 mmHg 62%
    13:00 +9°C° 0 mm 8 mps 756 mmHg 58%
    14:00 +9°C° 0 mm 7 mps 756 mmHg 59%
    15:00 +8°C° 0 mm 6 mps 756 mmHg 61%
    16:00 +8°C° 0 mm 5 mps 756 mmHg 62%
    17:00 +8°C° 0 mm 6 mps 756 mmHg 63%
    18:00 +8°C° 0 mm 6 mps 756 mmHg 63%
    19:00 +8°C° 0 mm 7 mps 756 mmHg 64%
    20:00 +8°C° 0 mm 7 mps 756 mmHg 66%
    21:00 +6°C° 0 mm 7 mps 756 mmHg 68%
    22:00 +6°C° 0 mm 7 mps 757 mmHg 70%
    23:00 +6°C° 0 mm 7 mps 756 mmHg 73%

    28 October, Monday

    Time Temperature Precipitation Wind Pressure Humidity
    00:00 +5°C° 0 mm 7 mps 756 mmHg 75%
    01:00 +5°C° 0 mm 7 mps 756 mmHg 77%
    02:00 +5°C° 0 mm 7 mps 756 mmHg 79%
    03:00 +4°C° 0 mm 7 mps 756 mmHg 80%
    04:00 +4°C° 0 mm 6 mps 756 mmHg 82%
    05:00 +4°C° 0 mm 6 mps 756 mmHg 82%
    06:00 +4°C° 0 mm 6 mps 756 mmHg 83%
    07:00 +3°C° 0 mm 6 mps 756 mmHg 84%
    08:00 +4°C° 0 mm 6 mps 756 mmHg 77%
    09:00 +5°C° 0 mm 7 mps 756 mmHg 71%
    10:00 +6°C° 0 mm 7 mps 756 mmHg 64%
    11:00 +8°C° 0 mm 7 mps 756 mmHg 62%
    12:00 +8°C° 0 mm 7 mps 756 mmHg 59%
    13:00 +8°C° 0 mm 7 mps 756 mmHg 56%
    14:00 +8°C° 0 mm 7 mps 756 mmHg 56%
    15:00 +7°C° 0 mm 6 mps 755 mmHg 56%
    16:00 +7°C° 0 mm 6 mps 755 mmHg 56%
    17:00 +6°C° 0 mm 5 mps 755 mmHg 56%
    18:00 +6°C° 0 mm 5 mps 756 mmHg 56%
    19:00 +6°C° 0 mm 5 mps 756 mmHg 55%
    20:00 +6°C° 0 mm 5 mps 756 mmHg 61%
    21:00 +5°C° 0 mm 5 mps 756 mmHg 66%
    22:00 +5°C° 0 mm 4 mps 756 mmHg 72%
    23:00 +4°C° 0 mm 4 mps 756 mmHg 75%
    Show more